This is the latest recevied weather packets stored in our database for station/object OK1OBR-13. If no packets are shown the sender has not sent any weather packets the latest 1 day(s).
| Time | Temp. | Humidity | Pressure | Rain* | Wind** | Luminosity | Snow |
|---|---|---|---|---|---|---|---|
| 1777956661 | 13.33° C | 56% | 931.2 hPa | 0 mm | 0.45 m/s, 146° | - | - |
| 1777956602 | 13.33° C | 56% | 931.2 hPa | 0 mm | 0.45 m/s, 131° | - | - |
| 1777956543 | 13.33° C | 55% | 931.2 hPa | 0 mm | 0.45 m/s, 145° | - | - |
| 1777956480 | 13.33° C | 55% | 931 hPa | 0 mm | 0.45 m/s, 144° | - | - |
| 1777956421 | 13.33° C | 55% | 931.2 hPa | 0 mm | 0.45 m/s, 136° | - | - |
| 1777956360 | 13.33° C | 56% | 931.1 hPa | 0 mm | 0.45 m/s, 132° | - | - |
| 1777956301 | 13.33° C | 55% | 931.1 hPa | 0 mm | 0.45 m/s, 142° | - | - |
| 1777956241 | 13.33° C | 57% | 931 hPa | 0 mm | 0.45 m/s, 138° | - | - |
| 1777956182 | 13.33° C | 55% | 931.1 hPa | 0 mm | 0.89 m/s, 126° | - | - |
| 1777956121 | 13.33° C | 55% | 931 hPa | 0 mm | 0.89 m/s, 137° | - | - |
| 1777956061 | 13.33° C | 55% | 931 hPa | 0 mm | 0.89 m/s, 139° | - | - |
| 1777956001 | 13.33° C | 55% | 931 hPa | 0 mm | 0.89 m/s, 126° | - | - |
| 1777955941 | 13.33° C | 55% | 931.4 hPa | 0 mm | 0.45 m/s, 132° | - | - |
| 1777955881 | 13.33° C | 55% | 931.2 hPa | 0 mm | 0.89 m/s, 136° | - | - |
| 1777955820 | 13.33° C | 55% | 931.1 hPa | 0 mm | 0.89 m/s, 131° | - | - |
| 1777955761 | 13.33° C | 55% | 931.1 hPa | 0 mm | 0.45 m/s, 124° | - | - |
| 1777955701 | 13.33° C | 55% | 931 hPa | 0 mm | 0.89 m/s, 133° | - | - |
| 1777955641 | 13.33° C | 55% | 931.1 hPa | 0 mm | 0.89 m/s, 141° | - | - |
| 1777955581 | 13.33° C | 55% | 931.1 hPa | 0 mm | 0.89 m/s, 143° | - | - |
| 1777955521 | 12.78° C | 55% | 931.2 hPa | 0 mm | 0.89 m/s, 143° | - | - |
| 1777955461 | 12.78° C | 55% | 931.2 hPa | 0 mm | 0.89 m/s, 145° | - | - |
| 1777955401 | 12.78° C | 55% | 931 hPa | 0 mm | 0.89 m/s, 129° | - | - |
| 1777955341 | 12.78° C | 56% | 931.2 hPa | 0 mm | 0.89 m/s, 137° | - | - |
| 1777955281 | 12.78° C | 56% | 931.4 hPa | 0 mm | 0.89 m/s, 146° | - | - |
| 1777955221 | 12.78° C | 56% | 931.2 hPa | 0 mm | 0.45 m/s, 142° | - | - |
* Rain since midnight (hover to see other rain measurements)
** Current wind speed in m/s (hover to see current wind gust speed)